Date,TemperatureHighF,TemperatureAvgF,TemperatureLowF,DewpointHighF,DewpointAvgF,DewpointLowF,HumidityHigh,HumidityAvg,HumidityLow,PressureMaxIn,PressureMinIn,WindSpeedMaxMPH,WindSpeedAvgMPH,GustSpeedMaxMPH,PrecipitationSumIn
2013-1-1,48.9,42.2,35.0,43.0,37.5,32.0,96,84,65,30.27,30.09,8,1,0,0.11
2013-1-2,46.0,41.6,37.4,43.0,36.0,32.0,97,81,64,30.34,30.09,8,2,0,0.00
2013-1-3,43.0,35.7,24.4,38.0,32.7,23.0,94,88,79,30.45,30.31,6,0,0,0.01
2013-1-4,47.4,32.0,20.2,29.0,21.7,18.0,96,70,31,30.52,30.41,14,2,0,0.00
2013-1-5,49.9,36.5,22.0,34.0,25.0,20.0,93,66,33,30.57,30.39,6,1,0,0.00
2013-1-6,54.2,39.9,30.8,39.0,33.0,28.0,97,78,52,30.41,30.20,14,2,0,0.01
2013-1-7,50.0,36.7,25.5,31.0,27.3,23.0,91,71,42,30.60,30.37,8,1,0,0.00
2013-1-8,52.8,34.7,21.5,38.0,29.3,20.0,96,82,54,30.65,30.55,12,1,0,0.00
2013-1-9,59.1,45.9,32.9,51.0,42.0,31.0,97,87,75,30.63,30.53,6,0,0,0.00
2013-1-10,60.2,48.3,40.6,50.0,40.6,34.0,98,78,37,30.69,30.57,5,0,0,0.00
2013-1-11,46.0,43.7,41.6,44.0,42.2,40.0,97,94,84,30.57,30.32,4,0,0,0.22
2013-1-12,66.8,52.4,43.4,61.0,50.5,43.0,98,93,80,30.33,30.25,2,0,0,0.00
2013-1-13,68.5,57.9,50.8,61.0,55.3,50.0,98,91,76,30.25,30.15,5,0,0,0.01
2013-1-14,59.9,55.8,49.9,59.0,55.2,48.0,98,97,94,30.32,30.17,8,1,0,1.98
2013-1-15,49.4,44.4,40.1,48.0,43.4,39.0,97,96,94,30.35,30.24,5,0,0,1.39
2013-1-16,50.8,44.7,39.8,49.0,43.8,39.0,98,96,93,30.24,30.12,4,0,0,0.38
2013-1-17,49.1,41.4,33.3,49.0,40.2,32.0,98,95,91,30.34,30.09,9,2,0,1.36
2013-1-18,45.6,34.8,27.6,33.0,26.8,23.0,94,75,44,30.71,30.37,20,2,0,0.06
2013-1-19,51.9,34.2,23.0,34.0,28.1,22.0,97,81,44,30.67,30.35,7,1,0,0.01
2013-1-20,57.2,38.9,26.1,37.0,29.6,25.0,96,74,34,30.32,30.20,13,2,0,0.01
2013-1-21,55.4,37.9,25.6,38.0,24.0,9.0,97,64,31,30.25,30.08,16,2,0,0.00
2013-1-22,33.9,27.4,18.6,12.0,4.6,-2.0,74,40,22,30.45,30.18,13,4,0,0.00
2013-1-23,42.8,27.1,16.0,25.0,16.4,11.0,87,66,39,30.54,30.22,11,1,0,0.00
2013-1-24,44.0,30.3,19.9,30.0,14.1,5.0,91,53,33,30.68,30.14,16,5,0,0.00
2013-1-25,25.3,22.7,20.0,23.0,16.6,8.0,91,78,54,30.69,30.30,9,1,0,0.00
2013-1-26,40.0,27.4,18.6,34.0,24.5,16.0,94,88,76,30.58,30.30,4,0,0,0.04
2013-1-27,38.2,29.4,20.4,30.0,24.9,19.0,95,83,66,30.78,30.59,6,1,0,0.04
2013-1-28,54.5,39.0,32.5,46.0,35.3,29.0,96,87,69,30.65,30.40,9,1,0,0.04
2013-1-29,67.3,44.9,31.2,52.0,40.7,30.0,98,87,52,30.41,30.18,6,0,0,0.00
2013-1-30,65.6,59.9,50.1,61.0,57.6,45.0,98,92,82,30.18,29.52,15,4,0,1.84
2013-1-31,50.8,38.4,29.2,45.0,26.4,19.0,85,63,47,30.14,29.56,12,4,0,0.01